• In Österreich
  • Länderverzeichnis
  • Für 7 Tage
  • Wassertemperatur
  • Satellitenkarten
  • Wetterkarte
  • News
  • Widgets
  • user-avatar
    Anmelden

    Stündliche Wetter Makadi Bey

    Heute, 23 September, Sonntag

    Zeit Temperatur Niederschläge Wind Luftdruck Luftfeuchtigkeit
    00:00 +30°C° 0 mm 1 m/S 706 mmHg 28%
    01:00 +29°C° 0 mm 1 m/S 706 mmHg 29%
    02:00 +29°C° 0 mm 1 m/S 705 mmHg 29%
    03:00 +28°C° 0 mm 2 m/S 705 mmHg 30%
    04:00 +28°C° 0 mm 2 m/S 705 mmHg 30%
    05:00 +28°C° 0 mm 2 m/S 705 mmHg 31%
    06:00 +29°C° 0 mm 2 m/S 706 mmHg 29%
    07:00 +31°C° 0 mm 3 m/S 706 mmHg 26%
    08:00 +33°C° 0 mm 3 m/S 706 mmHg 24%
    09:00 +35°C° 0 mm 3 m/S 707 mmHg 21%
    10:00 +36°C° 0 mm 3 m/S 707 mmHg 19%
    11:00 +38°C° 0 mm 2 m/S 707 mmHg 17%
    12:00 +39°C° 0 mm 3 m/S 707 mmHg 16%
    13:00 +40°C° 0 mm 3 m/S 707 mmHg 15%
    14:00 +40°C° 0 mm 3 m/S 707 mmHg 15%
    15:00 +40°C° 0 mm 3 m/S 706 mmHg 16%
    16:00 +39°C° 0 mm 3 m/S 706 mmHg 17%
    17:00 +40°C° 0 mm 4 m/S 706 mmHg 18%
    18:00 +37°C° 0 mm 3 m/S 706 mmHg 20%
    19:00 +36°C° 0 mm 3 m/S 706 mmHg 23%
    20:00 +34°C° 0 mm 2 m/S 706 mmHg 25%
    21:00 +32°C° 0 mm 2 m/S 706 mmHg 26%
    22:00 +32°C° 0 mm 2 m/S 706 mmHg 27%
    23:00 +31°C° 0 mm 2 m/S 707 mmHg 28%

    Morgen, 24 September, Montag

    Zeit Temperatur Niederschläge Wind Luftdruck Luftfeuchtigkeit
    00:00 +31°C° 0 mm 2 m/S 706 mmHg 28%
    01:00 +30°C° 0 mm 2 m/S 706 mmHg 29%
    02:00 +30°C° 0 mm 2 m/S 706 mmHg 30%
    03:00 +29°C° 0 mm 2 m/S 705 mmHg 32%
    04:00 +28°C° 0 mm 2 m/S 705 mmHg 33%
    05:00 +28°C° 0 mm 2 m/S 705 mmHg 35%
    06:00 +29°C° 0 mm 2 m/S 705 mmHg 32%
    07:00 +31°C° 0 mm 2 m/S 706 mmHg 29%
    08:00 +32°C° 0 mm 2 m/S 707 mmHg 27%
    09:00 +35°C° 0 mm 2 m/S 707 mmHg 23%
    10:00 +37°C° 0 mm 2 m/S 707 mmHg 20%
    11:00 +38°C° 0 mm 2 m/S 707 mmHg 17%
    12:00 +39°C° 0 mm 3 m/S 706 mmHg 15%
    13:00 +40°C° 0 mm 3 m/S 706 mmHg 14%
    14:00 +42°C° 0 mm 3 m/S 706 mmHg 13%
    15:00 +41°C° 0 mm 4 m/S 705 mmHg 14%
    16:00 +41°C° 0 mm 4 m/S 705 mmHg 15%
    17:00 +40°C° 0 mm 4 m/S 705 mmHg 16%
    18:00 +38°C° 0 mm 3 m/S 705 mmHg 18%
    19:00 +36°C° 0 mm 3 m/S 705 mmHg 21%
    20:00 +34°C° 0 mm 2 m/S 706 mmHg 23%
    21:00 +34°C° 0 mm 2 m/S 706 mmHg 24%
    22:00 +32°C° 0 mm 2 m/S 706 mmHg 24%
    23:00 +31°C° 0 mm 2 m/S 705 mmHg 24%

    übermorgen, 25 September, Dienstag

    Zeit Temperatur Niederschläge Wind Luftdruck Luftfeuchtigkeit
    00:00 +31°C° 0 mm 2 m/S 705 mmHg 25%
    01:00 +30°C° 0 mm 2 m/S 705 mmHg 26%
    02:00 +30°C° 0 mm 2 m/S 704 mmHg 27%
    03:00 +29°C° 0 mm 2 m/S 704 mmHg 28%
    04:00 +29°C° 0 mm 2 m/S 704 mmHg 29%
    05:00 +28°C° 0 mm 2 m/S 704 mmHg 30%
    06:00 +30°C° 0 mm 2 m/S 704 mmHg 28%
    07:00 +31°C° 0 mm 2 m/S 705 mmHg 26%
    08:00 +32°C° 0 mm 2 m/S 705 mmHg 24%
    09:00 +35°C° 0 mm 3 m/S 706 mmHg 21%
    10:00 +37°C° 0 mm 3 m/S 706 mmHg 18%
    11:00 +38°C° 0 mm 3 m/S 706 mmHg 16%
    12:00 +40°C° 0 mm 4 m/S 705 mmHg 15%
    13:00 +41°C° 0 mm 4 m/S 705 mmHg 14%
    14:00 +41°C° 0 mm 5 m/S 705 mmHg 13%
    15:00 +41°C° 0 mm 5 m/S 704 mmHg 15%
    16:00 +40°C° 0 mm 5 m/S 704 mmHg 16%
    17:00 +39°C° 0 mm 5 m/S 704 mmHg 17%
    18:00 +36°C° 0 mm 4 m/S 704 mmHg 20%
    19:00 +35°C° 0 mm 3 m/S 705 mmHg 22%
    20:00 +32°C° 0 mm 2 m/S 705 mmHg 24%
    21:00 +32°C° 0 mm 2 m/S 705 mmHg 25%
    22:00 +31°C° 0 mm 2 m/S 705 mmHg 26%
    23:00 +30°C° 0 mm 2 m/S 704 mmHg 26%

    26 September, Mittwoch

    Zeit Temperatur Niederschläge Wind Luftdruck Luftfeuchtigkeit
    00:00 +30°C° 0 mm 2 m/S 704 mmHg 27%
    01:00 +29°C° 0 mm 2 m/S 704 mmHg 28%
    02:00 +29°C° 0 mm 2 m/S 703 mmHg 29%
    03:00 +28°C° 0 mm 2 m/S 703 mmHg 30%
    04:00 +28°C° 0 mm 2 m/S 703 mmHg 31%
    05:00 +27°C° 0 mm 2 m/S 703 mmHg 32%
    06:00 +28°C° 0 mm 2 m/S 704 mmHg 30%
    07:00 +30°C° 0 mm 3 m/S 704 mmHg 27%
    08:00 +31°C° 0 mm 3 m/S 705 mmHg 25%
    09:00 +34°C° 0 mm 3 m/S 705 mmHg 22%
    10:00 +35°C° 0 mm 3 m/S 705 mmHg 19%
    11:00 +37°C° 0 mm 3 m/S 706 mmHg 16%
    12:00 +38°C° 0 mm 4 m/S 705 mmHg 15%
    13:00 +38°C° 0 mm 4 m/S 705 mmHg 14%
    14:00 +40°C° 0 mm 5 m/S 704 mmHg 14%
    15:00 +38°C° 0 mm 4 m/S 704 mmHg 15%
    16:00 +37°C° 0 mm 4 m/S 704 mmHg 17%
    17:00 +36°C° 0 mm 4 m/S 704 mmHg 18%
    18:00 +35°C° 0 mm 3 m/S 704 mmHg 20%
    19:00 +34°C° 0 mm 3 m/S 705 mmHg 23%
    20:00 +31°C° 0 mm 2 m/S 705 mmHg 25%
    21:00 +31°C° 0 mm 2 m/S 705 mmHg 26%
    22:00 +30°C° 0 mm 1 m/S 705 mmHg 27%
    23:00 +29°C° 0 mm 1 m/S 705 mmHg 28%

    27 September, Donnerstag

    Zeit Temperatur Niederschläge Wind Luftdruck Luftfeuchtigkeit
    00:00 +29°C° 0 mm 1 m/S 704 mmHg 29%
    01:00 +28°C° 0 mm 2 m/S 704 mmHg 30%
    02:00 +28°C° 0 mm 2 m/S 703 mmHg 31%
    03:00 +27°C° 0 mm 2 m/S 703 mmHg 33%
    04:00 +27°C° 0 mm 2 m/S 703 mmHg 35%
    05:00 +26°C° 0 mm 1 m/S 703 mmHg 36%
    06:00 +27°C° 0 mm 2 m/S 704 mmHg 34%
    07:00 +29°C° 0 mm 2 m/S 705 mmHg 31%
    08:00 +30°C° 0 mm 2 m/S 705 mmHg 29%
    09:00 +31°C° 0 mm 3 m/S 705 mmHg 26%
    10:00 +34°C° 0 mm 3 m/S 706 mmHg 22%
    11:00 +36°C° 0 mm 3 m/S 706 mmHg 19%
    12:00 +36°C° 0 mm 3 m/S 705 mmHg 19%
    13:00 +37°C° 0 mm 3 m/S 705 mmHg 19%
    14:00 +37°C° 0 mm 4 m/S 705 mmHg 18%
    15:00 +36°C° 0 mm 4 m/S 705 mmHg 20%
    16:00 +36°C° 0 mm 4 m/S 705 mmHg 21%
    17:00 +35°C° 0 mm 4 m/S 705 mmHg 23%
    18:00 +34°C° 0.1 mm 4 m/S 705 mmHg 26%
    19:00 +33°C° 0.1 mm 3 m/S 705 mmHg 29%
    20:00 +30°C° 0.1 mm 3 m/S 706 mmHg 32%
    21:00 +30°C° 0 mm 3 m/S 706 mmHg 33%
    22:00 +29°C° 0 mm 2 m/S 706 mmHg 35%
    23:00 +28°C° 0 mm 2 m/S 706 mmHg 37%

    28 September, Freitag

    Zeit Temperatur Niederschläge Wind Luftdruck Luftfeuchtigkeit
    00:00 +28°C° 0 mm 2 m/S 706 mmHg 37%
    01:00 +28°C° 0 mm 2 m/S 706 mmHg 37%
    02:00 +27°C° 0 mm 1 m/S 706 mmHg 37%
    03:00 +27°C° 0 mm 2 m/S 706 mmHg 37%
    04:00 +27°C° 0 mm 2 m/S 706 mmHg 37%
    05:00 +27°C° 0 mm 2 m/S 706 mmHg 36%
    06:00 +28°C° 0 mm 2 m/S 706 mmHg 34%
    07:00 +29°C° 0 mm 3 m/S 706 mmHg 32%
    08:00 +30°C° 0 mm 3 m/S 707 mmHg 30%
    09:00 +32°C° 0 mm 4 m/S 707 mmHg 27%
    10:00 +34°C° 0 mm 4 m/S 707 mmHg 24%
    11:00 +35°C° 0 mm 4 m/S 707 mmHg 21%
    12:00 +35°C° 0 mm 4 m/S 707 mmHg 20%
    13:00 +36°C° 0 mm 5 m/S 707 mmHg 20%
    14:00 +37°C° 0 mm 5 m/S 706 mmHg 19%
    15:00 +36°C° 0 mm 5 m/S 706 mmHg 20%
    16:00 +35°C° 0 mm 4 m/S 706 mmHg 21%
    17:00 +35°C° 0 mm 4 m/S 706 mmHg 22%
    18:00 +34°C° 0 mm 4 m/S 706 mmHg 23%
    19:00 +33°C° 0 mm 3 m/S 706 mmHg 24%
    20:00 +33°C° 0 mm 3 m/S 706 mmHg 26%
    21:00 +31°C° 0 mm 3 m/S 706 mmHg 26%
    22:00 +31°C° 0 mm 3 m/S 706 mmHg 27%
    23:00 +30°C° 0 mm 2 m/S 706 mmHg 28%
    Mehr zeigen